N3EG Weather Reports


time (UTC)temp
C
wind
direction
speed
KPH
gust
KPH
rain 1hr
cm
rain 24hr
cm
rain mn
cm
humidity
%
barometer
mb
20260503224003 31 334 3.2 11.3 0.00 0.00 0.00 35 1009.0
20260503223503 31 64 4.8 11.3 0.00 0.00 0.00 34 1008.9
20260503223002 31 46 3.2 9.7 0.00 0.00 0.00 38 1009.0
20260503222503 31 50 4.8 12.9 0.00 0.00 0.00 35 1009.1
20260503222003 31 60 4.8 12.9 0.00 0.00 0.00 36 1009.1
20260503221502 31 88 6.4 11.3 0.00 0.00 0.00 33 1009.3
20260503221003 31 73 3.2 11.3 0.00 0.00 0.00 37 1009.2
20260503220503 31 20 6.4 11.3 0.00 0.00 0.00 32 1009.4
20260503220002 31 44 3.2 11.3 0.00 0.00 0.00 33 1009.4
20260503215503 31 97 3.2 12.9 0.00 0.00 0.00 36 1009.4
20260503215002 31 61 3.2 12.9 0.00 0.00 0.00 37 1009.5
20260503214502 31 334 4.8 9.7 0.00 0.00 0.00 35 1009.7
20260503214003 31 337 6.4 9.7 0.00 0.00 0.00 40 1009.7
20260503213502 31 288 1.6 9.7 0.00 0.00 0.00 41 1009.8
20260503213002 31 83 4.8 9.7 0.00 0.00 0.00 42 1009.8
20260503212503 31 58 3.2 8.0 0.00 0.00 0.00 39 1009.8
20260503212002 31 335 3.2 8.0 0.00 0.00 0.00 45 1009.9
20260503211502 31 303 3.2 6.4 0.00 0.00 0.00 39 1009.9
20260503211003 30 290 1.6 9.7 0.00 0.00 0.00 48 1010.0
20260503210502 30 289 1.6 9.7 0.00 0.00 0.00 40 1010.1
20260503210002 30 342 3.2 9.7 0.00 0.00 0.00 41 1010.1
20260503205503 30 93 3.2 9.7 0.00 0.00 0.00 47 1010.1
20260503205002 30 68 3.2 9.7 0.00 0.00 0.00 40 1010.2
20260503204502 30 91 4.8 9.7 0.00 0.00 0.00 46 1010.3
20260503204003 30 79 0.0 6.4 0.00 0.00 0.00 46 1010.4
20260503203502 30 308 1.6 9.7 0.00 0.00 0.00 48 1010.6
20260503203002 30 327 6.4 9.7 0.00 0.00 0.00 47 1010.6
20260503202503 29 26 3.2 14.5 0.00 0.00 0.00 46 1010.6
20260503202002 29 337 1.6 14.5 0.00 0.00 0.00 46 1010.7
20260503201502 29 354 4.8 14.5 0.00 0.00 0.00 48 1010.7
20260503201003 29 33 3.2 8.0 0.00 0.00 0.00 44 1011.0
20260503200502 28 329 1.6 8.0 0.00 0.00 0.00 42 1011.0
20260503200002 29 338 4.8 12.9 0.00 0.00 0.00 44 1011.1
20260503195503 28 334 3.2 12.9 0.00 0.00 0.00 47 1011.2
20260503195002 28 84 3.2 9.7 0.00 0.00 0.00 45 1011.3
20260503194502 28 333 1.6 6.4 0.00 0.00 0.00 48 1011.3
20260503194003 28 351 3.2 8.0 0.00 0.00 0.00 45 1011.3
20260503193502 27 61 4.8 8.0 0.00 0.00 0.00 51 1011.5
20260503193002 27 1 1.6 8.0 0.00 0.00 0.00 47 1011.4
20260503192503 27 26 0.0 11.3 0.00 0.00 0.00 45 1011.5
20260503192002 27 77 3.2 11.3 0.00 0.00 0.00 48 1011.5
20260503191502 27 81 4.8 8.0 0.00 0.00 0.00 47 1011.6
20260503191003 26 86 1.6 9.7 0.00 0.00 0.00 47 1011.7
20260503190502 26 95 3.2 11.3 0.00 0.00 0.00 47 1011.8
20260503190003 26 77 1.6 11.3 0.00 0.00 0.00 52 1011.9
20260503185503 26 67 3.2 8.0 0.00 0.00 0.00 50 1011.9
20260503185002 26 93 1.6 8.0 0.00 0.00 0.00 51 1012.1
20260503184503 26 325 1.6 6.4 0.00 0.00 0.00 51 1012.1
20260503184003 26 77 3.2 6.4 0.00 0.00 0.00 54 1012.2
20260503183502 25 340 1.6 8.0 0.00 0.00 0.00 53 1012.3
20260503183003 25 67 3.2 8.0 0.00 0.00 0.00 49 1012.2
20260503182503 25 4 3.2 9.7 0.00 0.00 0.00 52 1012.3
20260503182002 25 32 3.2 9.7 0.00 0.00 0.00 53 1012.4
20260503181503 25 25 1.6 6.4 0.00 0.00 0.00 50 1012.5
20260503181003 25 66 3.2 6.4 0.00 0.00 0.00 52 1012.4
20260503180502 25 75 1.6 8.0 0.00 0.00 0.00 55 1012.5
20260503180003 25 66 3.2 8.0 0.00 0.00 0.00 56 1012.5
20260503175503 24 352 1.6 6.4 0.00 0.00 0.00 55 1012.6
20260503175002 24 28 1.6 6.4 0.00 0.00 0.00 54 1012.5
20260503174503 23 325 1.6 9.7 0.00 0.00 0.00 57 1012.6
20260503174003 23 290 4.8 9.7 0.00 0.00 0.00 56 1012.7
20260503173502 23 306 1.6 6.4 0.00 0.00 0.00 58 1012.7
20260503173002 23 89 1.6 6.4 0.00 0.00 0.00 61 1012.8
20260503172503 23 305 3.2 6.4 0.00 0.00 0.00 61 1012.7
20260503172002 22 299 1.6 6.4 0.00 0.00 0.00 60 1012.8
20260503171502 22 313 4.8 6.4 0.00 0.00 0.00 64 1012.8
20260503171003 22 235 1.6 3.2 0.00 0.00 0.00 63 1012.8
20260503170502 21 228 0.0 3.2 0.00 0.00 0.00 63 1012.9
20260503151002 15 319 0.0 1.6 0.00 0.00 0.00 90 1013.4
20260503150503 14 319 0.0 4.8 0.00 0.00 0.00 91 1013.3
20260503131003 9 251 0.0 0.0 0.00 0.00 0.00 93 1013.1
20260503130503 9 251 0.0 1.6 0.00 0.00 0.00 93 1013.1
20260503110503 10 209 0.0 0.0 0.00 0.00 0.00 92 1013.5
20260503090502 12 236 0.0 3.2 0.00 0.00 0.00 91 1013.7
20260503081503 12 38 3.2 6.4 0.00 0.00 0.00 91 1013.8
20260503081002 12 97 1.6 6.4 0.00 0.00 0.00 90 1013.9
20260503080502 13 182 1.6 6.4 0.00 0.00 0.00 90 1013.9
20260503072502 14 331 1.6 4.8 0.00 0.00 0.00 89 1013.8
20260503072003 14 323 1.6 3.2 0.00 0.00 0.00 89 1013.9
20260503071503 14 318 1.6 4.8 0.00 0.00 0.00 89 1013.9
20260503071002 14 346 1.6 4.8 0.00 0.00 0.00 89 1013.8
20260503070503 14 333 3.2 4.8 0.00 0.00 0.00 89 1013.7
20260503055003 16 313 3.2 12.9 0.00 0.00 0.00 85 1013.8
20260503054503 16 312 1.6 12.9 0.00 0.00 0.00 85 1013.7
20260503054003 16 326 4.8 9.7 0.00 0.00 0.00 84 1013.9
20260503053503 16 331 3.2 6.4 0.00 0.00 0.00 84 1013.9
20260503053003 16 336 4.8 12.9 0.00 0.00 0.00 84 1014.0
20260503052503 16 338 4.8 12.9 0.00 0.00 0.00 84 1013.9
20260503052003 16 325 4.8 9.7 0.00 0.00 0.00 84 1013.9
20260503051503 16 307 3.2 8.0 0.00 0.00 0.00 83 1013.9
20260503051002 16 334 4.8 8.0 0.00 0.00 0.00 83 1013.9
20260503050503 16 335 4.8 8.0 0.00 0.00 0.00 83 1013.9
20260503050002 16 335 6.4 8.0 0.00 0.00 0.00 83 1013.8
20260503045503 16 327 3.2 8.0 0.00 0.00 0.00 83 1013.8
20260503045002 16 331 3.2 6.4 0.00 0.00 0.00 82 1013.7
20260503044503 17 309 1.6 6.4 0.00 0.00 0.00 82 1013.6
20260503044003 17 326 3.2 6.4 0.00 0.00 0.00 81 1013.5
20260503043502 17 318 3.2 8.0 0.00 0.00 0.00 81 1013.5
20260503043003 17 327 3.2 8.0 0.00 0.00 0.00 80 1013.4
20260503042502 17 329 1.6 4.8 0.00 0.00 0.00 80 1013.4
20260503042003 17 311 1.6 6.4 0.00 0.00 0.00 79 1013.5
20260503041503 18 303 3.2 6.4 0.00 0.00 0.00 78 1013.2
20260503041002 18 313 1.6 6.4 0.00 0.00 0.00 77 1013.2
20260503040503 18 332 3.2 6.4 0.00 0.00 0.00 76 1013.0
20260503040003 18 317 1.6 4.8 0.00 0.00 0.00 76 1012.9
20260503035502 18 314 1.6 6.4 0.00 0.00 0.00 76 1012.8
20260503035003 18 329 1.6 8.0 0.00 0.00 0.00 76 1012.6
20260503034503 18 342 4.8 8.0 0.00 0.00 0.00 76 1012.6
20260503034002 19 343 3.2 6.4 0.00 0.00 0.00 75 1012.5
20260503033503 19 13 3.2 4.8 0.00 0.00 0.00 75 1012.3
20260503033003 19 301 1.6 3.2 0.00 0.00 0.00 75 1012.3
20260503032502 19 300 0.0 1.6 0.00 0.00 0.00 75 1012.1
20260503032003 20 301 0.0 6.4 0.00 0.00 0.00 74 1012.0
20260503031503 20 289 0.0 6.4 0.00 0.00 0.00 74 1011.8
20260503031002 20 343 3.2 8.0 0.00 0.00 0.00 73 1011.6
20260503030503 20 309 3.2 8.0 0.00 0.00 0.00 73 1011.6
20260503030003 20 311 1.6 8.0 0.00 0.00 0.00 72 1011.5
20260503025502 21 295 3.2 8.0 0.00 0.00 0.00 71 1011.6
20260503025003 21 289 1.6 6.4 0.00 0.00 0.00 71 1011.5
20260503024503 21 297 1.6 11.3 0.00 0.00 0.00 70 1011.7
20260503024002 21 309 4.8 11.3 0.00 0.00 0.00 70 1011.6
20260503023503 22 333 1.6 12.9 0.00 0.00 0.00 69 1011.6
20260503023003 22 307 3.2 12.9 0.00 0.00 0.00 69 1011.6
20260503022503 22 294 1.6 9.7 0.00 0.00 0.00 69 1011.5
20260503022003 22 313 3.2 8.0 0.00 0.00 0.00 68 1011.6
20260503021502 22 300 3.2 8.0 0.00 0.00 0.00 68 1011.5
20260503021003 23 285 1.6 11.3 0.00 0.00 0.00 67 1011.6
20260503020502 23 295 4.8 11.3 0.00 0.00 0.00 65 1011.5
20260503020002 23 314 4.8 11.3 0.00 0.00 0.00 65 1011.5
20260503015503 23 307 3.2 14.5 0.00 0.00 0.00 64 1011.5
20260503015002 23 297 4.8 14.5 0.00 0.00 0.00 63 1011.5
20260503014502 24 316 3.2 8.0 0.00 0.00 0.00 61 1011.5
20260503014003 24 271 3.2 11.3 0.00 0.00 0.00 59 1011.4
20260503013502 24 296 4.8 11.3 0.00 0.00 0.00 57 1011.6
20260503013002 24 292 4.8 9.7 0.00 0.00 0.00 57 1011.6
20260503012503 25 302 3.2 9.7 0.00 0.00 0.00 58 1011.6
20260503012003 25 293 3.2 6.4 0.00 0.00 0.00 57 1011.5
20260503011502 25 284 3.2 11.3 0.00 0.00 0.00 56 1011.6
20260503011003 25 302 6.4 11.3 0.00 0.00 0.00 56 1011.5
20260503010503 25 285 3.2 9.7 0.00 0.00 0.00 57 1011.6
20260503010002 25 297 4.8 9.7 0.00 0.00 0.00 56 1011.5
20260503005503 26 287 4.8 12.9 0.00 0.00 0.00 56 1011.6
20260503005003 26 309 4.8 12.9 0.00 0.00 0.00 56 1011.7
20260503004502 26 319 6.4 9.7 0.00 0.00 0.00 54 1011.8
20260503004003 26 293 3.2 9.7 0.00 0.00 0.00 56 1011.7
20260503003503 26 296 3.2 8.0 0.00 0.00 0.00 59 1011.8
20260503003002 26 224 1.6 4.8 0.00 0.00 0.00 58 1011.8
20260503002503 26 224 3.2 6.4 0.00 0.00 0.00 60 1011.7
20260503002003 26 242 3.2 8.0 0.00 0.00 0.00 60 1011.7
20260503001502 26 233 3.2 8.0 0.00 0.00 0.00 58 1011.8
20260503001003 26 233 1.6 6.4 0.00 0.00 0.00 60 1011.8
20260503000502 26 236 3.2 6.4 0.00 0.00 0.00 58 1011.9
20260503000002 25 229 3.2 4.8 0.00 0.00 0.00 57 1011.9
20260502235503 26 236 3.2 4.8 0.00 0.00 0.00 59 1011.9
20260502235002 25 253 1.6 4.8 0.00 0.00 0.00 61 1012.0
20260502234502 25 249 3.2 4.8 0.00 0.00 0.00 60 1012.0
20260502234003 25 304 1.6 4.8 0.00 0.00 0.00 59 1012.1
20260502233502 25 255 1.6 6.4 0.00 0.00 0.00 63 1012.1
20260502233002 25 304 4.8 6.4 0.00 0.00 0.00 61 1012.2
20260502232503 25 296 3.2 6.4 0.00 0.00 0.00 62 1012.3
20260502232002 25 220 1.6 8.0 0.00 0.00 0.00 60 1012.3
20260502231503 24 273 3.2 11.3 0.00 0.00 0.00 62 1012.3
20260502231003 24 308 4.8 11.3 0.00 0.00 0.00 60 1012.5
20260502230502 24 267 1.6 8.0 0.00 0.00 0.00 63 1012.5
20260502230003 24 290 3.2 8.0 0.00 0.00 0.00 63 1012.6
20260502225503 24 269 3.2 8.0 0.00 0.00 0.00 63 1012.8
20260502225002 24 308 3.2 6.4 0.00 0.00 0.00 63 1012.8
20260502224503 23 297 3.2 8.0 0.00 0.00 0.00 64 1012.9